"Pseudo-MPEC" for CARLEL2

Created 2024 Sep 8 22:22:07 UT using Find_Orb

Click here for an explanation of pseudo-MPECs

 
 Astrometry: 
     CARLEL2*1C2024 09 07.22949223 12 27.112+15 02 38.83   ~976b 21.19GVNEOCPG96
     CARLEL2 1C2024 09 07.23464923 12 28.724+15 02 00.13   ~976b       VNEOCPG96
     CARLEL2 1C2024 09 07.23981423 12 30.229+15 01 21.43   ~976b 21.57GVNEOCPG96
     CARLEL2 1C2024 09 07.24498823 12 31.849+15 00 41.94   ~976b       VNEOCPG96
     CARLEL2  C2024 09 07.28262323 12 43.013+14 55 58.56   ~977b 20.8 GVNEOCPH01
     CARLEL2  C2024 09 07.28612023 12 44.072+14 55 32.42   ~977b 21.3 GVNEOCPH01
     CARLEL2  C2024 09 07.29663823 12 47.268+14 54 13.41   ~977b 20.9 GVNEOCPH01
     CARLEL2  C2024 09 07.30361023 12 49.371+14 53 21.07   ~977b 20.5 GVNEOCPH01
     CARLEL2 KC2024 09 07.34744623 13 02.860+14 47 54.24   ~978q 20.93GVNEOCPV06
     CARLEL2 KC2024 09 07.34909523 13 03.360+14 47 41.71   ~978q 21.01GVNEOCPV06
     CARLEL2 KC2024 09 07.35074523 13 03.853+14 47 29.40   ~978q 21.02GVNEOCPV06
     CARLEL2 KC2024 09 07.35239523 13 04.346+14 47 16.91   ~978q 20.96GVNEOCPV06
     CARLEL2 1C2024 09 07.85314 23 15 48.04 +13 45 38.2    ~97Lq 21.1 VXNEOCP033
     CARLEL2 1C2024 09 07.85508 23 15 48.62 +13 45 24.4    ~97Lq 21.1 VXNEOCP033
     CARLEL2 1C2024 09 07.85701 23 15 49.20 +13 45 10.7    ~97Lq 21.3 VXNEOCP033
     CARLEL2 1C2024 09 07.87493 23 15 54.48 +13 43 02.5    ~97Lq 20.9 VXNEOCP033
     CARLEL2 1C2024 09 07.87880 23 15 55.63 +13 42 34.9    ~97Lq 20.9 VXNEOCP033
     CARLEL2 KC2024 09 08.44537723 18 41.724+12 36 31.14   ~98B7 20.53GVNEOCPI52
     CARLEL2 KC2024 09 08.44772423 18 42.372+12 36 15.98   ~98B7 21.26GVNEOCPI52
     CARLEL2 KC2024 09 08.44914123 18 42.714+12 36 05.29   ~98B7 20.45GVNEOCPI52
     CARLEL2 KC2024 09 08.45056923 18 43.139+12 35 56.18   ~98B7 20.73GVNEOCPI52

Station data:
(033) Karl Schwarzschild Observatory, Tautenburg  (N50.980139 E11.711240)
   Germany.  Observer B. Stecklum. 1.34-m f/3 Schmidt + CCD.
(G96) Mt. Lemmon Survey  (N32.442729 W110.788720)  US/Arizona.  Observer E.
   J. Christensen. 1.5-m reflector + 10K CCD.
(H01) Magdalena Ridge Observatory, Socorro  (N33.984833 W107.189333)  US/New
   Mexico.  Observers W. H. Ryan, E. V. Ryan. Measurer W. H. Ryan. 2.4-m
   f/8.9 reflector + CCD.
(I52) Steward Observatory, Mt. Lemmon Station  (N32.442570 W110.788920)
   US/Arizona.  Observers T. A. Pruyne, B. M. Africano, E. J. Christensen, G.
   A. Farneth, D. C. Fuls, A. R. Gibbs, A. D. Grauer, H. Gröller, J. A.
   Johnson, R. A. Kowalski, S. M. Larson, G. J. Leonard, D. Rankin, R. L.
   Seaman, F. C. Shelly, K. W. Wierzchoś. 1.0-m prime focus + CCD.
(V06) Catalina Sky Survey-Kuiper  (N32.416871 W110.732550)  US/Arizona.
   Observers T. A. Pruyne, B. M. Africano, E. J. Christensen, G. A. Farneth,
   D. C. Fuls, A. R. Gibbs, A. D. Grauer, H. Gröller, J. A. Johnson, R. A.
   Kowalski, S. M. Larson, G. J. Leonard, D. Rankin, R. L. Seaman, F. C.
   Shelly, K. W. Wierzchoś. 1.55-m reflector + CCD.

Orbital elements:  CARLEL2
   Perihelion 2024 Jul 27.18656 +/- 0.0247 TT =  4:28:38 (JD 2460518.68656)
Epoch 2024 Sep  8.0 TT = JDT 2460561.5   Earth MOID: 0.0802   Ma: 0.0635
M  12.91345211 +/- 0.16             (J2000 ecliptic)             AutoNEOCP
n   0.30162142 +/- 0.00375          Peri.  120.32979 +/- 0.056
a   2.20205380 +/- 0.0183           Node   176.30600 +/- 0.011
e   0.5565880 +/- 0.00384           Incl.    9.91277 +/- 0.041
P   3.26770                H 24.71  G  0.15   U  9.0
q 0.97641706 +/- 0.000424    Q 3.42769055 +/- 0.0369
From 21 observations 2024 Sept. 7-8 (29.3 hr); mean residual 0".25
Residuals in arcseconds: 
240907 G96  .25+  .18+    240907 H01  .02-  .05+    240907 033  .03+  .08+    
240907 G96  .61+  .12+    240907 V06  .00   .11+    240907 033  .07-  .10-    
240907 G96  .56-  .13+    240907 V06  .05+  .04-    240907 033  .11+  .06-    
240907 G96  .07-  .58-    240907 V06  .01-  .03+    240908 I52  .24+  .60-    
240907 H01  .09-  .00     240907 V06  .06-  .08-    240908 I52  .27+  .53+    
240907 H01  .10-  .11+    240907 033  .17-  .08-    240908 I52  .44-  .33-    
240907 H01  .06+  .05+    240907 033  .10-  .01-    240908 I52  .02+  .47+    

Ephemerides (geocentric):
Date (UTC) HH   RA             Dec           delta  r     elong  mag " sig PA
---- --------  ------------   ------------  ------ ------ -----  --- --------
2024 09 08 22  23 20 59.780   +11 44 00.09  .12070 1.1231 162.7 21.2 .490 113
2024 09 08 23  23 21 11.398   +11 39 24.46  .12092 1.1233 162.8 21.2 .531 115
2024 09 09 00  23 21 22.968   +11 34 49.72  .12114 1.1236 162.9 21.2 .573 117
2024 09 09 01  23 21 34.488   +11 30 15.88  .12136 1.1238 162.9 21.2 .617 119
2024 09 09 02  23 21 45.961   +11 25 42.94  .12158 1.1241 163.0 21.2 .663 120
2024 09 09 03  23 21 57.385   +11 21 10.88  .12180 1.1243 163.1 21.2 .710 122
2024 09 09 04  23 22 08.761   +11 16 39.72  .12202 1.1246 163.2 21.2 .759 123
2024 09 09 05  23 22 20.089   +11 12 09.44  .12224 1.1248 163.3 21.2 .810 125
2024 09 09 06  23 22 31.371   +11 07 40.04  .12246 1.1251 163.4 21.2 .862 126
2024 09 09 07  23 22 42.605   +11 03 11.52  .12268 1.1253 163.5 21.2 .915 127
2024 09 09 08  23 22 53.792   +10 58 43.89  .12290 1.1256 163.6 21.2 .970 128
2024 09 09 09  23 23 04.933   +10 54 17.12  .12313 1.1258 163.6 21.2 1.03 128
2024 09 09 10  23 23 16.027   +10 49 51.24  .12335 1.1261 163.7 21.2 1.08 129
2024 09 09 11  23 23 27.075   +10 45 26.22  .12357 1.1263 163.8 21.2 1.14 130
2024 09 09 12  23 23 38.078   +10 41 02.07  .12380 1.1266 163.9 21.2 1.20 131
2024 09 09 13  23 23 49.034   +10 36 38.79  .12402 1.1268 164.0 21.2 1.26 131
2024 09 09 14  23 23 59.946   +10 32 16.37  .12425 1.1271 164.1 21.2 1.32 132
2024 09 09 15  23 24 10.812   +10 27 54.81  .12447 1.1274 164.2 21.2 1.39 132
2024 09 09 16  23 24 21.633   +10 23 34.11  .12470 1.1276 164.2 21.2 1.45 133
2024 09 09 17  23 24 32.410   +10 19 14.26  .12492 1.1279 164.3 21.3 1.52 133
2024 09 09 18  23 24 43.143   +10 14 55.27  .12515 1.1281 164.4 21.3 1.59 134
2024 09 09 19  23 24 53.831   +10 10 37.13  .12537 1.1284 164.5 21.3 1.65 134
2024 09 09 20  23 25 04.475   +10 06 19.83  .12560 1.1286 164.6 21.3 1.72 135
2024 09 09 21  23 25 15.076   +10 02 03.38  .12583 1.1289 164.7 21.3 1.79 135
2024 09 09 22  23 25 25.633   +09 57 47.78  .12605 1.1291 164.8 21.3 1.86 136
2024 09 09 23  23 25 36.147   +09 53 33.01  .12628 1.1294 164.8 21.3 1.94 136
2024 09 10 00  23 25 46.618   +09 49 19.09  .12651 1.1296 164.9 21.3 2.01 136
2024 09 10 01  23 25 57.046   +09 45 06.00  .12674 1.1299 165.0 21.3 2.08 137
2024 09 10 02  23 26 07.432   +09 40 53.74  .12697 1.1301 165.1 21.3 2.16 137
2024 09 10 03  23 26 17.775   +09 36 42.31  .12720 1.1304 165.2 21.3 2.23 137
2024 09 10 04  23 26 28.076   +09 32 31.71  .12743 1.1306 165.3 21.3 2.31 137
2024 09 10 05  23 26 38.335   +09 28 21.93  .12766 1.1309 165.3 21.3 2.39 138
2024 09 10 06  23 26 48.553   +09 24 12.98  .12789 1.1312 165.4 21.3 2.47 138
2024 09 10 07  23 26 58.729   +09 20 04.84  .12812 1.1314 165.5 21.3 2.55 138
2024 09 10 08  23 27 08.864   +09 15 57.53  .12835 1.1317 165.6 21.3 2.63 138
2024 09 10 09  23 27 18.958   +09 11 51.03  .12858 1.1319 165.7 21.3 2.71 139
2024 09 10 10  23 27 29.012   +09 07 45.34  .12881 1.1322 165.7 21.3 2.79 139
2024 09 10 11  23 27 39.024   +09 03 40.46  .12904 1.1324 165.8 21.3 2.88 139
2024 09 10 12  23 27 48.997   +08 59 36.39  .12928 1.1327 165.9 21.3 2.96 139
2024 09 10 13  23 27 58.929   +08 55 33.12  .12951 1.1329 166.0 21.3 3.05 139
2024 09 10 14  23 28 08.821   +08 51 30.65  .12974 1.1332 166.1 21.3 3.13 140
2024 09 10 15  23 28 18.673   +08 47 28.99  .12998 1.1335 166.1 21.3 3.22 140
2024 09 10 16  23 28 28.486   +08 43 28.12  .13021 1.1337 166.2 21.3 3.31 140
2024 09 10 17  23 28 38.260   +08 39 28.05  .13044 1.1340 166.3 21.3 3.40 140
2024 09 10 18  23 28 47.995   +08 35 28.77  .13068 1.1342 166.4 21.3 3.48 140
2024 09 10 19  23 28 57.690   +08 31 30.27  .13091 1.1345 166.5 21.3 3.57 140
2024 09 10 20  23 29 07.347   +08 27 32.57  .13115 1.1347 166.5 21.3 3.67 141
2024 09 10 21  23 29 16.966   +08 23 35.65  .13138 1.1350 166.6 21.3 3.76 141